Location: Altleiningen
(49.5078°N, 8.0741°E)
Time: 11:45:00
(UTC+00:00)

Cosmos 2219 Rocket - Pass Details

Date: 03 March 2021
Orbit: 826 x 848 km, 71.0° (Epoch: 13 April)

Event Time Altitude Azimuth Distance (km) Brightness Sun altitude
Rises 21:09:10 0° 243° (WSW) 3,363 5.6 -36.7°
Reaches altitude 10° 21:11:54 10° 254° (WSW) 2,435 4.9 -37.0°
Maximum altitude 21:16:44 29° 314° (NW) 1,478 3.9 -37.6°
Drops below altitude 10° 21:21:37 10° 15° (NNE) 2,457 4.9 -38.1°
Sets 21:24:25 0° 26° (NNE) 3,399 5.6 -38.5°
